Regional Weather Roundup
Issued by NWS

Home | Current Version | Previous Version | Text Only | Print | Product List | Glossary On
Versions: 1 2 3 4 5 6 7 8 9 10 11 12 13 14 15 16 17 18 19 20 21 22 23 24 25 26 27 28 29 30 31 32 33 34 35 36 37 38 39 40 41 42 43 44 45 46 47 48 49 50
000
ASUS43 KLSX 250957
RWRMO

WEATHER SUMMARY FOR MISSOURI
NATIONAL WEATHER SERVICE SPRINGFIELD MO
500 AM CDT SUN SEP 25 2016

NOTE: "FAIR" INDICATES FEW OR NO CLOUDS BELOW 12,000 FEET WITH NO
       SIGNIFICANT WEATHER AND/OR OBSTRUCTIONS TO VISIBILITY.
       CURRENT SKY AND/OR WEATHER CONDITIONS ARE NOT AVAILABLE FOR
       CHILLICOTHE AND FARMINGTON.

MOZ001>031-035>038-043-044-053-054-251100-
...NORTHERN AND WESTERN MISSOURI...

CITY           SKY/WX    TMP DP  RH WIND       PRES   REMARKS
KANSAS CTY INT CLOUDY    67  65  93 W6        30.01F
ST JOSEPH      CLOUDY    69  67  93 SW8       30.02S
CHILLICOTHE      N/A     70  67  90 CALM      30.02R

$$
MOZ066>068-077>081-088>096-101>105-251100-
...SOUTHWEST MISSOURI...

CITY           SKY/WX    TMP DP  RH WIND       PRES   REMARKS
SPRINGFIELD    MOCLDY    70  66  87 NW3       30.06S
JOPLIN         CLOUDY    68  65  90 E3          N/A

$$
MOZ032>034-039>042-045>050-055>058-069>072-251100-
...CENTRAL MISSOURI...

CITY           SKY/WX    TMP DP  RH WIND       PRES   REMARKS
COLUMBIA       NOT AVBL
JEFFERSON CITY MOCLDY    71  68  90 SE3       30.03R
ROLLA          CLEAR     68  65  90 S6        30.05S
SEDALIA        CLOUDY    72  68  87 SW3       30.04S

$$
MOZ051-052-059>065-251100-
...EAST CENTRAL MISSOURI...

CITY           SKY/WX    TMP DP  RH WIND       PRES   REMARKS
ST LOUIS INTL  CLEAR     76  67  73 S5        30.05S
SPIRIT OF STL  FOG       66  66 100 CALM      30.03S VSB 3/4

$$
MOZ072>076-082>087-097>100-106>115-251100-
...SOUTH CENTRAL AND SOUTHEAST MISSOURI...

CITY           SKY/WX    TMP DP  RH WIND       PRES   REMARKS
CAPE GIRARDEAU CLEAR     69  66  90 CALM      30.05S
WEST PLAINS    CLEAR     66  63  90 CALM      30.09R

$$


USA.gov is the U.S. government's official web portal to all federal, state and local government web resources and services.